Location: Unspecified
(54.1780°N, 0.0000°E)
Time: 18:51:26
(UTC+00:00)

Tiros 1 - Pass Details

Date: 21 June 2019
Orbit: 631 x 664 km, 48.4° (Epoch: 23 August)

Event Time Altitude Azimuth Distance (km) Brightness Sun altitude
Rises 02:20:43 0° 254° (WSW) 2,935 - -6.8°
Exits shadow 02:20:49 - 254° (WSW) 2,897 10.0 -6.8°
Reaches altitude 10° 02:23:09 10° 247° (WSW) 2,022 9.2 -6.6°
Maximum altitude 02:27:30 41° 178° (S) 920 7.6 -6.3°
Drops below altitude 10° 02:31:51 10° 108° (ESE) 2,011 9.9 -5.9°
Sets 02:34:15 0° 102° (ESE) 2,918 10.8 -5.7°
